COSMOS 1275 DEB, 42134

Orbit data source: Space-Track

COSMOS 1275 DEB, 42134 is space debris in LEO originally from a launch on Thu, 04 Jun 1981 UTC launched from the Plesetsk Missile And Space Complex (PKMTR). Debris objects in space refer to the collection of defunct objects orbiting the Earth. Examples of debris include non-operational satellites, rocket bodies, and fragments generated from explosions, collisions, or faulty payload assembly.

Loading next visibility...
Identifier
42134, 1981-053QW
Orbit
LEO
Last TLE update
14 hours ago
Origin
Manufacturer
Unknown
Mission
Spacecraft
Bus & Motor
Unknown
Mass
Unknown
Launch date (UTC)
1981-06-04 (44 years ago)
Launch vehicle
Unknown
Launch site
Plesetsk Missile And Space Complex (PKMTR)
Object type
Payload
Rocket body
Debris
Shape & HBR
Unknown
Radar Cross Section
Small (<0.1 m²)

Expand to show TLE details & history

TLE from 14 hours ago
0 COSMOS 1275 DEB
1 42134U 81053QW  25191.50226003  .00000679  00000-0  86322-3 0  9993
2 42134  83.0059 101.1897 0177560  81.8325 280.2917 13.55570161529224
Epoch: 2025-07-10T12:03Z
TLE epoch observation values (Epoch: 2025-07-10T12:03:15.266Z)
Latitude
-0.00007°
Longitude
-8.29154°
Altitude
1,033.414 km
Speed
7.346 km/s
True Right ascension
06h 44m 45s
True Declination
0° 00' 00"
Sunlit
Object was in daylight at epoch
Visualization orbit readout
Latitude
-30.20317°
Longitude
-12.7807°
Altitude
1,107.15 km
Speed
7.276 km/s
Apparent Right ascension
04h 42m 45s
Apparent Declination
-38° 33' 05"
Sunlit
Object is in daylight
Visualization observer readout
Local Sidereal Time
14:21:04
Azimuth
261.337° W
Elevation
-62.711°
Doppler factor
1
Orbital elements
Apogee altitude
1,180.883 km
Perigee altitude
917.131 km
Semi-major axis
7,427.144 km
Eccentricity
0.01776
Inclination
83.0059°
RAAN
101.1897°
Arg. of periapsis
81.8325°
True anomaly
Unknown
Mean anomaly
280.2917°
Eccentric anomaly
Unknown
Mean motion
3.39086 °/min
Orbital period
106.17 mins
BSTAR
0.00086322
Loading maneuver chart data...
Loading SW <> Apogee altitude chart data...
Loading historical data...
Loading historical data...
Loading historical data...
Loading historical data...
Loading historical data...
Loading historical data...
Loading historical data...

COSMOS 1275 DEB Visibility forecast

Observer location: undefined°, undefined°

Span
Click to sort rows by Start time (UTC) header in descending order
Start Az.
Max El. time (UTC)
Max El. Az.
Max El.
End time (UTC)
End Az.
7 mins2025-07-11 04:35:34.341Z32.367° NE2025-07-11 04:38:34.341Z65.763° ENE18.889°2025-07-11 04:42:34.341Z110.257° ESE
11 mins2025-07-11 06:21:34.341Z341.7° N2025-07-11 06:26:34.341Z257.877° W40.204°2025-07-11 06:32:34.341Z190.619° SSW
9 mins2025-07-11 18:17:34.341Z164.183° S2025-07-11 18:21:34.341Z96.63° ESE40.256°2025-07-11 18:26:34.341Z17.507° NNE
6 mins2025-07-11 20:06:34.341Z260.046° W2025-07-11 20:08:34.341Z283.234° WNW17.992°2025-07-11 20:12:34.341Z329.001° NNW
|